Regional Weather Roundup
Issued by NWS

Home | Current Version | Previous Version | Text Only | Print | Product List | Glossary On
Versions: 1 2 3 4 5 6 7 8 9 10 11 12 13 14 15 16 17 18 19 20 21 22 23 24 25 26 27 28 29 30 31 32 33 34 35 36 37 38 39 40 41 42 43 44 45 46 47 48 49 50
000
ASUS43 KLMK 171210
RWRKY
KENTUCKY REGIONAL WEATHER ROUNDUP
NATIONAL WEATHER SERVICE LOUISVILLE KY
800 AM EDT THU AUG 17 2017

NOTE "FAIR" INDICATES FEW OR NO CLOUDS BELOW 12,000 FEET
WITH NO SIGNIFICANT WEATHER AND/OR OBSTRUCTIONS TO VISIBILITY.

KYZ001>023-026-027-061>063-070>075-171300-
WESTERN AND SOUTH CENTRAL KENTUCKY

CITY           SKY/WX    TMP DP  RH WIND       PRES   REMARKS
PADUCAH        CLOUDY    77  73  87 SW7       29.93R
HENDERSON      CLEAR     77  75  93 S7        29.93R
OWENSBORO      PTCLDY    76  74  93 S7        29.95R
HOPKINSVILLE   PTCLDY    75  74  95 S6        29.98R
BOWLING GREEN  CLEAR     76  75  97 SW5       30.00R
GLASGOW        PTSUNNY   75  75 100 SW7       30.01R
$$

KYZ024-025-028>034-038-045-046-053-171300-
NORTH CENTRAL KENTUCKY

CITY           SKY/WX    TMP DP  RH WIND       PRES   REMARKS
LOUISVILLE/SDF MOSUNNY   78  74  87 S7        29.97R
LOUISVILLE/LOU SUNNY     77  75  93 S6        29.97R
FORT KNOX      MOSUNNY   74  74  99 S6        29.97R
$$

KYZ035>037-039>044-047>052-055>060-089>105-171300-
NORTHEAST KENTUCKY

CITY           SKY/WX    TMP DP  RH WIND       PRES   REMARKS
LEXINGTON      SUNNY     76  72  87 S7        30.01R
COVINGTON      MOSUNNY   75  74  96 S8        29.97R
FRANKFORT      SUNNY     76  72  87 S6        29.98S
$$

KYZ054-064>069-076>088-106>120-171300-
SOUTHEAST KENTUCKY

CITY           SKY/WX    TMP DP  RH WIND       PRES   REMARKS
JACKSON        SUNNY     72  71  97 CALM      30.06R
LONDON         SUNNY     73  71  93 S3        30.06R
SOMERSET       MOSUNNY   72  72 100 S3        30.06R
MIDDLESBORO    CLOUDY    72  72 100 CALM      30.09R
MONTICELLO     MOSUNNY   75  74  96 W10       30.07R
$$





USA.gov is the U.S. government's official web portal to all federal, state and local government web resources and services.